Showing default

UNICORN-2L, 58727

Orbit data source: Space-Track

UNICORN-2L, 58727 is a payload satellite owned by Alba Orbital (DE) in SSO that was launched on Fri, 01 Dec 2023 UTC via an FALCON 9 launch vehicle from the Air Force Western Test Range (AFWTR). Payload-class satellites include a variety of spacecraft equipped with specific instruments for various scientific and technological missions. These include communications satellites like Starlink; space stations such as the ISS; scientific satellites like the Hubble; Earth observation satellites from companies like Planet Labs, Umbra, and HawkEye 360; GPS; miniature CubeSats for education and research; and military/defense satellites.

Loading next visibility...
Identifier
58727, 2023-185R
Orbit
SSO
Country
Flag of DEDE / GER
Related business
Manufacturer
Alba Orbital
Mission
Operational Commercial Imaging
Bus & Motor
POCKETQUBE 3P, Unknown motor
Mass
~0.75 kg wet, ~0.75 kg dry
Launch date (UTC)
2023-12-01 (2 years ago)
Launch vehicle
FALCON 9
Launch site
Air Force Western Test Range (AFWTR)
Object type
Payload
Rocket body
Debris
Shape & HBR
Box + 2 Pan, 0.2 m
Radar Cross Section
0.016 m², Small (<0.1 m²)

Expand to show TLE details & history
Last TLE update: 1 day ago

TLE from 1 day ago
0 UNICORN-2L
1 58727U 23185R   25305.60697422  .00010491  00000-0  54323-3 0  9994
2 58727  97.5683  14.6024 0014743  29.4098 330.7961 15.16305012100247
Epoch: 2025-11-01T14:34Z
TLE epoch observation values (Epoch: 2025-11-01T14:34:02.572Z)
Latitude
-0.00005°
Longitude
114.95706°
Altitude
511.228 km
Speed
7.613 km/s
True Right ascension
00h 58m 24s
True Declination
0° 00' 00"
Sunlit
Object was in full shadow at epoch
Visualization orbit readout
Latitude
Unknown
Longitude
Unknown
Altitude
Unknown
Speed
Unknown
Apparent Right ascension
Unknown
Apparent Declination
Unknown
Sunlit
N/A
Visualization observer readout
Local Sidereal Time
10:08:20
Azimuth
Unknown
Elevation
Unknown
Doppler factor
Unknown
Orbital elements
Apogee altitude
524.158 km
Perigee altitude
503.836 km
Semi-major axis
6,892.134 km
Eccentricity
0.00147
Inclination
97.5683°
RAAN
14.6024°
Arg. of periapsis
29.4098°
True anomaly
330.71354°
Mean anomaly
330.7961°
Eccentric anomaly
330.75483°
Mean motion
3.79326 °/min
Orbital period
94.91 mins
BSTAR
0.00054323
Loading maneuver chart data...
Computing Atmospheric mass density...
Loading historical data...
Loading historical data...
Loading historical data...
Loading historical data...
Loading historical data...
Loading historical data...
Loading historical data...

Documentation

Showing up to 5 results
|